Regional Weather Roundup
Issued by NWS

Home | Current Version | Previous Version | Graphics & Text | Print | Product List | Glossary Off
Versions: 1 2 3 4 5 6 7 8 9 10 11 12 13 14 15 16 17 18 19 20 21 22 23 24 25 26 27 28 29 30 31 32 33 34 35 36 37 38

000
ASUS43 KDMX 261107
RWRIA

WEATHER ROUNDUP FOR IOWA
NATIONAL WEATHER SERVICE DES MOINES IA
500 AM CST FRI DEC 26 2014

NOTE: "FAIR" INDICATES FEW OR NO CLOUDS BELOW 12,000 FEET WITH NO
SIGNIFICANT WEATHER AND/OR OBSTRUCTIONS TO VISIBILITY.

* - THESE STATIONS ARE NOT NWS STATIONS...THUS NOT UNDER NWS
QUALITY CONTROL.  THEY ALSO DO NOT REPORT WEATHER SUCH
AS PRECIPITATION OR FOG.

IAZ001>003-012>014-020>022-031>034-043>046-261200-
   NORTHWEST IOWA

CITY           SKY/WX    TMP DP  RH WIND       PRES   REMARKS
CARROLL *      CLOUDY    28  28 100 NW8       29.84R WCI  20
CHEROKEE *     CLOUDY    32  32 100 N10G16    29.87R WCI  24
DENISON *      CLOUDY    32  32 100 N12       29.85R FOG     WCI  23
LE MARS *      CLOUDY    32  32 100 N13       29.91R WCI  22
ORANGE CITY *  CLOUDY    32  28  86 N12       29.89R WCI  23
SHELDON *      CLOUDY    30  30 100 N16       29.88R WCI  19
SIOUX CITY     CLOUDY    33  30  88 N12       29.91R WCI  24
SPENCER        CLOUDY    33  30  88 N15       29.87R WCI  23
STORM LAKE *   CLOUDY    32  30  93 N14G21    29.86R WCI  22
$$

IAZ055>058-069>071-079>083-090>094-261200-
   SOUTHWEST IOWA

CITY           SKY/WX    TMP DP  RH WIND       PRES   REMARKS
ATLANTIC *     CLEAR     30  30 100 NW12      29.83R WCI  21
AUDUBON *      CLEAR     28  25  86 NW9       29.84R WCI  20
CLARINDA *     CLEAR     32  30  93 CALM      29.84S
COUNCIL BLFS * CLOUDY    32  32 100 N12       29.85R FOG     WCI  23
CRESTON *      CLEAR     34  30  86 SW7       29.81S WCI  28
HARLAN  *      CLOUDY    30  30 100 N14G21    29.88R FOG     WCI  20
LAMONI         CLEAR     35  30  82 S9        29.83R WCI  28
RED OAK *      CLOUDY    32  32 100 NW9G15    29.85R FOG     WCI  24
SHENANDOAH *   CLOUDY    32  32 100 N13G21    29.85S FOG     WCI  22
$$

IAZ047>049-059>061-072>074-084-261200-
   CENTRAL IOWA

CITY           SKY/WX    TMP DP  RH WIND       PRES   REMARKS
AMES           CLEAR     29  27  92 CALM      29.83R
ANKENY *       CLEAR     36  30  80 S5        29.82S WCI  32
CHARITON *     PTCLDY    37  32  81 S16       29.83S WCI  28
DES MOINES     PTCLDY    37  30  75 S10       29.82S WCI  30
GRINNELL*      CLEAR     34  30  86 S8        29.84S WCI  27
KNOXVILLE *    CLEAR     39  30  70 S12G17    29.83R WCI  32
MARSHALLTOWN   CLEAR     35  30  82 S8        29.81S WCI  29
PELLA *        CLEAR     37  30  75 S9        29.86R WCI  31
PERRY *          N/A     30  28  93 W6        29.82S WCI  24
$$

IAZ004>006-015-016-023>025-035-036-261200-
   NORTH CENTRAL IOWA

CITY           SKY/WX    TMP DP  RH WIND       PRES   REMARKS
ALGONA *       CLOUDY    32  32 100 N8G16     29.84R FOG     WCI  25
CLARION *      CLEAR     25  25 100 NE6       29.81F WCI  18
ESTHERVILLE    CLOUDY    31  30  96 N14       29.86R FOG     WCI  21
FORT DODGE *   CLEAR     27  21  80 NW7       29.83R WCI  19
MASON CITY     PTCLDY    24  23  96 CALM      29.83S FOG
FOREST CITY *  CLEAR     27  25  93 CALM      29.81S FOG
IOWA FALLS *     N/A     32  30  93 CALM      29.83R
$$

IAZ007>011-017>019-026>030-037>042-050>054-066-261200-
   NORTHEAST IOWA

CITY           SKY/WX    TMP DP  RH WIND       PRES   REMARKS
CEDAR RAPIDS   CLEAR     37  32  82 S13       29.86R WCI  29
CHARLES CITY * CLEAR     32  32 100 SE7       29.83F WCI  26
CLINTON *      MOCLDY    39  32  75 S13       29.94R WCI  32
DECORAH *      PTCLDY    36  32  87 VRB3      29.83S
DUBUQUE        PTCLDY    35  31  85 S10       29.87S WCI  27
MONTICELLO *   CLEAR     37  34  87 S9        29.87S WCI  31
OELWEIN *      CLEAR     32  30  93 SE8       29.85R WCI  25
WATERLOO       CLEAR     34  29  82 S7        29.83R WCI  28
$$

IAZ064-065-067-068-078-261200-
   EAST CENTRAL IOWA

CITY           SKY/WX    TMP DP  RH WIND       PRES   REMARKS
DAVENPORT      MOCLDY    40  32  73 S20G26    29.91S WCI  30
IOWA CITY      CLEAR     39  32  76 S9        29.90S WCI  33
MT. PLEASANT * PTCLDY    37  32  81 S7        29.92S WCI  32
MUSCATINE *    CLEAR     41  34  75 S16       29.91S
QUAD CITIES    MOCLDY    41  33  73 S15G23    29.91S
$$

IAZ062-063-075>077-085>089-095>099-261200-
   SOUTHEAST IOWA

CITY           SKY/WX    TMP DP  RH WIND       PRES   REMARKS
BURLINGTON     MOCLDY    40  34  79 S14       29.93S WCI  32
FAIRFIELD *    CLEAR     39  32  75 S14       29.89S WCI  31
FORT MADISON * CLEAR     39  36  87 S10       29.94S WCI  32
KEOKUK *       CLEAR     43  34  70 S12G17    29.93S
OSKALOOSA *      N/A     36  30  80 S14G20    29.87S WCI  27
CENTERVILLE *  CLEAR     37  32  81 S9        29.88S WCI  31
OTTUMWA        CLEAR     37  31  78 S16       29.87R WCI  28
WASHINGTON *   CLEAR     39  36  87 S14       29.89S WCI  31
$$

ABBREVIATIONS USED IN REMARKS
   TC - TEMPERATURES IN CELSIUS
  WCI - WIND CHILL INDEX
   HX - HEAT INDEX
  VSB - VISIBILITY
$$



USA.gov is the U.S. government's official web portal to all federal, state and local government web resources and services.